SFR136 FACT-FAPE

Flight info

Callsign SFR136
Flight time 0h 57m
Altitude 33000
Route OKTED1B OKTED UQ12 XUGOL UQ56 OKSET DCT PEV
Aircraft B738/M-SDE2E3FGHIRWXY/LB1

Departure

Time 2026-04-14 22:33
Airport Cape Town International Airport (FACT)

Arrival

Time 2026-04-14 23:31
Airport Chief Dawid Stuurman International Airport (FAPE)
Time Latitude Longitude Altitude Speed Heading
2026-04-14 22:10 -33.96708 18.59935 156 ft 0 kts 75°
2026-04-14 22:26 -33.96709 18.59929 129 ft 2 kts 75°
2026-04-14 22:26 -33.96715 18.59907 156 ft 3 kts 68°
2026-04-14 22:26 -33.96724 18.59885 156 ft 3 kts 58°
2026-04-14 22:26 -33.96736 18.59866 156 ft 3 kts 40°
2026-04-14 22:27 -33.96751 18.59854 156 ft 3 kts
2026-04-14 22:27 -33.96760 18.59855 156 ft 0 kts 344°
2026-04-14 22:29 -33.96757 18.59853 156 ft 1 kts 342°
2026-04-14 22:29 -33.96740 18.59848 156 ft 7 kts 345°
2026-04-14 22:29 -33.96661 18.59822 156 ft 16 kts 346°
2026-04-14 22:30 -33.96550 18.59789 156 ft 16 kts 347°
2026-04-14 22:30 -33.96442 18.59764 156 ft 16 kts 351°
2026-04-14 22:30 -33.96335 18.59742 156 ft 16 kts 349°
2026-04-14 22:30 -33.96233 18.59729 155 ft 14 kts 19°
2026-04-14 22:31 -33.96161 18.59807 153 ft 14 kts 45°
2026-04-14 22:31 -33.96094 18.59888 154 ft 13 kts 46°
2026-04-14 22:31 -33.96029 18.59963 154 ft 13 kts 50°
2026-04-14 22:31 -33.96065 18.60036 154 ft 10 kts 171°
2026-04-14 22:32 -33.96077 18.60039 154 ft 0 kts 167°
2026-04-14 22:32 -33.96105 18.60047 154 ft 20 kts 167°
2026-04-14 22:32 -33.96499 18.60172 156 ft 95 kts 165°
2026-04-14 22:32 -33.97357 18.60442 152 ft 158 kts 165°
2026-04-14 22:33 -33.98571 18.60830 384 ft 193 kts 164°
2026-04-14 22:33 -33.99842 18.61260 1371 ft 191 kts 166°
2026-04-14 22:33 -34.01182 18.61713 1985 ft 208 kts 167°
2026-04-14 22:33 -34.02657 18.62209 2272 ft 232 kts 166°
2026-04-14 22:34 -34.04264 18.62748 2718 ft 247 kts 166°
2026-04-14 22:34 -34.05939 18.63468 3028 ft 271 kts 148°
2026-04-14 22:34 -34.07257 18.65171 3751 ft 280 kts 121°
2026-04-14 22:34 -34.08212 18.67205 4557 ft 285 kts 117°
2026-04-14 22:35 -34.09172 18.69337 5319 ft 292 kts 117°
2026-04-14 22:35 -34.10149 18.71509 6052 ft 297 kts 117°
2026-04-14 22:35 -34.11149 18.73712 6749 ft 301 kts 117°
2026-04-14 22:35 -34.12167 18.75939 7472 ft 303 kts 117°
2026-04-14 22:36 -34.13193 18.78173 8210 ft 306 kts 118°
2026-04-14 22:36 -34.14234 18.80434 8948 ft 309 kts 118°
2026-04-14 22:36 -34.15284 18.82709 9654 ft 312 kts 118°
2026-04-14 22:36 -34.16347 18.85016 10260 ft 319 kts 118°
2026-04-14 22:37 -34.17457 18.87436 10444 ft 341 kts 117°
2026-04-14 22:37 -34.18154 18.90236 10609 ft 358 kts 94°
2026-04-14 22:37 -34.18362 18.93272 11062 ft 367 kts 91°
2026-04-14 22:37 -34.18523 18.96363 11644 ft 371 kts 91°
2026-04-14 22:38 -34.18680 18.99482 12234 ft 375 kts 91°
2026-04-14 22:38 -34.18848 19.02646 12778 ft 380 kts 91°
2026-04-14 22:38 -34.19026 19.05819 13305 ft 385 kts 92°
2026-04-14 22:38 -34.19219 19.09105 13866 ft 389 kts 92°
2026-04-14 22:39 -34.19415 19.12374 14387 ft 391 kts 92°
2026-04-14 22:39 -34.19615 19.15664 14909 ft 394 kts 92°
2026-04-14 22:39 -34.19816 19.18979 15413 ft 398 kts 92°
2026-04-14 22:39 -34.20018 19.22322 15911 ft 400 kts 92°
2026-04-14 22:40 -34.20221 19.25686 16429 ft 403 kts 92°
2026-04-14 22:40 -34.20422 19.29035 16917 ft 406 kts 92°
2026-04-14 22:40 -34.20625 19.32450 17400 ft 409 kts 92°
2026-04-14 22:40 -34.20830 19.35894 17880 ft 412 kts 92°
2026-04-14 22:41 -34.21035 19.39360 18362 ft 414 kts 92°
2026-04-14 22:41 -34.21240 19.42844 18794 ft 417 kts 92°
2026-04-14 22:41 -34.21446 19.46338 19224 ft 419 kts 92°
2026-04-14 22:41 -34.21652 19.49864 19636 ft 421 kts 92°
2026-04-14 22:42 -34.21856 19.53394 20099 ft 422 kts 92°
2026-04-14 22:42 -34.22012 19.56939 20522 ft 423 kts 88°
2026-04-14 22:42 -34.21897 19.60494 20926 ft 424 kts 83°
2026-04-14 22:42 -34.21729 19.62850 21188 ft 425 kts 82°
2026-04-14 22:43 -34.21425 19.66412 21610 ft 427 kts 81°
2026-04-14 22:43 -34.21114 19.69984 22028 ft 429 kts 82°
2026-04-14 22:43 -34.20818 19.73584 22427 ft 431 kts 82°
2026-04-14 22:43 -34.20541 19.77205 22808 ft 434 kts 82°
2026-04-14 22:44 -34.20279 19.80840 23212 ft 435 kts 83°
2026-04-14 22:44 -34.20024 19.84490 23587 ft 437 kts 83°
2026-04-14 22:44 -34.19772 19.88155 23893 ft 439 kts 83°
2026-04-14 22:44 -34.19517 19.91844 24191 ft 441 kts 83°
2026-04-14 22:45 -34.19261 19.95537 24517 ft 442 kts 83°
2026-04-14 22:45 -34.19002 19.99253 24828 ft 444 kts 83°
2026-04-14 22:45 -34.18739 20.02988 25107 ft 447 kts 83°
2026-04-14 22:45 -34.18475 20.06742 25395 ft 449 kts 83°
2026-04-14 22:46 -34.18209 20.10509 25713 ft 450 kts 83°
2026-04-14 22:46 -34.17944 20.14237 26010 ft 452 kts 83°
2026-04-14 22:46 -34.17671 20.18036 26283 ft 454 kts 83°
2026-04-14 22:46 -34.17556 20.21862 26535 ft 458 kts 89°
2026-04-14 22:47 -34.17625 20.25712 26842 ft 459 kts 90°
2026-04-14 22:47 -34.17750 20.29567 27118 ft 461 kts 91°
2026-04-14 22:47 -34.17892 20.33454 27367 ft 463 kts 91°
2026-04-14 22:47 -34.18027 20.37345 27621 ft 465 kts 91°
2026-04-14 22:48 -34.18151 20.41255 27914 ft 465 kts 91°
2026-04-14 22:48 -34.18262 20.45165 28182 ft 467 kts 90°
2026-04-14 22:48 -34.18366 20.49091 28425 ft 469 kts 90°
2026-04-14 22:48 -34.18464 20.53030 28655 ft 470 kts 90°
2026-04-14 22:49 -34.18558 20.56930 28926 ft 471 kts 90°
2026-04-14 22:49 -34.18651 20.60890 29178 ft 472 kts 90°
2026-04-14 22:49 -34.18744 20.64864 29399 ft 474 kts 90°
2026-04-14 22:49 -34.18837 20.68851 29617 ft 476 kts 91°
2026-04-14 22:50 -34.18929 20.72852 29885 ft 476 kts 91°
2026-04-14 22:50 -34.19020 20.76850 30201 ft 475 kts 91°
2026-04-14 22:50 -34.19110 20.80838 30530 ft 473 kts 90°
2026-04-14 22:50 -34.19197 20.84798 30822 ft 471 kts 91°
2026-04-14 22:51 -34.19283 20.88750 31129 ft 469 kts 90°
2026-04-14 22:51 -34.19367 20.92683 31418 ft 468 kts 90°
2026-04-14 22:51 -34.19450 20.96610 31693 ft 467 kts 90°
2026-04-14 22:51 -34.19532 21.00528 31959 ft 466 kts 90°
2026-04-14 22:52 -34.19612 21.04435 32225 ft 465 kts 90°
2026-04-14 22:52 -34.19691 21.08346 32446 ft 466 kts 90°
2026-04-14 22:52 -34.19769 21.12211 32672 ft 466 kts 90°
2026-04-14 22:52 -34.19846 21.16112 32936 ft 464 kts 90°
2026-04-14 22:53 -34.19921 21.20014 32938 ft 466 kts 90°
2026-04-14 22:53 -34.20070 21.27810 32938 ft 463 kts 91°
2026-04-14 22:54 -34.20216 21.35582 32955 ft 460 kts 91°
2026-04-14 22:54 -34.20349 21.43253 32950 ft 458 kts 90°
2026-04-14 22:55 -34.20469 21.50947 32951 ft 457 kts 91°
2026-04-14 22:55 -34.20587 21.58609 32951 ft 456 kts 91°
2026-04-14 22:56 -34.20704 21.66261 32954 ft 455 kts 91°
2026-04-14 22:56 -34.20818 21.73923 32949 ft 455 kts 91°
2026-04-14 22:57 -34.20931 21.81524 33255 ft 458 kts 85°
2026-04-14 22:57 -34.20985 21.85423 33095 ft 468 kts 85°
2026-04-14 22:57 -34.21033 21.89392 33053 ft 476 kts 85°
2026-04-14 22:58 -34.21131 21.97496 32983 ft 489 kts 85°
2026-04-14 22:58 -34.21234 22.05814 32958 ft 500 kts 85°
2026-04-14 22:59 -34.21338 22.14292 32932 ft 505 kts 85°
2026-04-14 22:59 -34.21437 22.22776 32924 ft 504 kts 85°
2026-04-14 23:00 -34.21528 22.31202 32916 ft 503 kts 85°
2026-04-14 23:00 -34.21610 22.39652 32920 ft 502 kts 85°
2026-04-14 23:01 -34.21678 22.48084 32920 ft 500 kts 85°
2026-04-14 23:01 -34.21743 22.56470 32930 ft 499 kts 85°
2026-04-14 23:02 -34.21805 22.64794 32931 ft 497 kts 85°
2026-04-14 23:02 -34.21864 22.73170 32949 ft 499 kts 85°
2026-04-14 23:03 -34.21917 22.81583 32947 ft 501 kts 85°
2026-04-14 23:03 -34.21966 22.90015 32941 ft 502 kts 85°
2026-04-14 23:04 -34.22011 22.98411 32917 ft 493 kts 85°
2026-04-14 23:04 -34.22053 23.06580 32934 ft 483 kts 85°
2026-04-14 23:05 -34.22079 23.14694 32818 ft 485 kts 84°
2026-04-14 23:05 -34.22089 23.18769 32436 ft 483 kts 85°
2026-04-14 23:05 -34.22102 23.22800 32047 ft 478 kts 85°
2026-04-14 23:05 -34.22113 23.26816 31657 ft 474 kts 85°
2026-04-14 23:06 -34.22123 23.30741 31263 ft 472 kts 85°
2026-04-14 23:06 -34.22131 23.34694 30865 ft 469 kts 85°
2026-04-14 23:06 -34.22137 23.38622 30471 ft 467 kts 85°
2026-04-14 23:06 -34.22142 23.42535 30080 ft 465 kts 85°
2026-04-14 23:07 -34.22145 23.46430 29615 ft 463 kts 85°
2026-04-14 23:07 -34.22148 23.50303 29180 ft 460 kts 85°
2026-04-14 23:07 -34.22149 23.54157 28744 ft 457 kts 85°
2026-04-14 23:07 -34.22150 23.57982 28325 ft 454 kts 85°
2026-04-14 23:08 -34.22149 23.61787 27915 ft 451 kts 85°
2026-04-14 23:08 -34.22147 23.65560 27502 ft 448 kts 85°
2026-04-14 23:08 -34.22144 23.69309 27107 ft 445 kts 85°
2026-04-14 23:08 -34.22139 23.73043 26709 ft 443 kts 85°
2026-04-14 23:09 -34.22133 23.76747 26313 ft 440 kts 85°
2026-04-14 23:09 -34.22127 23.80439 25916 ft 438 kts 85°
2026-04-14 23:09 -34.22119 23.84064 25522 ft 436 kts 86°
2026-04-14 23:09 -34.22110 23.87729 25123 ft 434 kts 86°
2026-04-14 23:10 -34.22100 23.91376 24708 ft 433 kts 86°
2026-04-14 23:10 -34.22089 23.95008 24324 ft 432 kts 86°
2026-04-14 23:10 -34.22078 23.98617 23968 ft 429 kts 86°
2026-04-14 23:10 -34.22065 24.02235 23528 ft 430 kts 86°
2026-04-14 23:11 -34.22051 24.05845 23040 ft 429 kts 86°
2026-04-14 23:11 -34.22037 24.09438 22624 ft 426 kts 86°
2026-04-14 23:11 -34.22022 24.13013 22268 ft 422 kts 86°
2026-04-14 23:11 -34.22007 24.16512 22030 ft 415 kts 86°
2026-04-14 23:12 -34.21989 24.19990 21433 ft 419 kts 86°
2026-04-14 23:12 -34.21970 24.23506 20972 ft 419 kts 86°
2026-04-14 23:12 -34.21950 24.27011 20580 ft 416 kts 86°
2026-04-14 23:12 -34.21930 24.30505 20189 ft 414 kts 86°
2026-04-14 23:13 -34.21910 24.33976 19797 ft 412 kts 86°
2026-04-14 23:13 -34.21888 24.37431 19405 ft 411 kts 87°
2026-04-14 23:13 -34.21866 24.40878 19004 ft 409 kts 87°
2026-04-14 23:13 -34.21843 24.44310 18612 ft 408 kts 87°
2026-04-14 23:14 -34.21819 24.47735 18211 ft 407 kts 87°
2026-04-14 23:14 -34.21794 24.51146 17780 ft 405 kts 87°
2026-04-14 23:14 -34.21770 24.54537 17374 ft 402 kts 87°
2026-04-14 23:14 -34.21745 24.57908 16979 ft 400 kts 87°
2026-04-14 23:15 -34.21717 24.61256 16591 ft 397 kts 86°
2026-04-14 23:15 -34.21689 24.64582 16209 ft 395 kts 86°
2026-04-14 23:15 -34.21475 24.67850 15927 ft 386 kts 77°
2026-04-14 23:15 -34.21019 24.71032 15563 ft 383 kts 76°
2026-04-14 23:16 -34.20520 24.74182 15212 ft 381 kts 75°
2026-04-14 23:16 -34.20013 24.77311 14845 ft 379 kts 75°
2026-04-14 23:16 -34.19500 24.80428 14478 ft 377 kts 75°
2026-04-14 23:16 -34.18992 24.83493 14102 ft 376 kts 75°
2026-04-14 23:17 -34.18478 24.86583 13733 ft 375 kts 75°
2026-04-14 23:17 -34.17962 24.89671 13313 ft 374 kts 75°
2026-04-14 23:17 -34.17448 24.92740 12928 ft 372 kts 75°
2026-04-14 23:18 -34.16418 24.98821 12194 ft 367 kts 75°
2026-04-14 23:18 -34.15905 25.01827 11840 ft 364 kts 75°
2026-04-14 23:18 -34.15394 25.04821 11484 ft 362 kts 75°
2026-04-14 23:18 -34.14884 25.07786 11131 ft 360 kts 75°
2026-04-14 23:19 -34.14383 25.10694 10792 ft 357 kts 75°
2026-04-14 23:19 -34.13869 25.13660 10439 ft 355 kts 75°
2026-04-14 23:19 -34.13371 25.16525 10186 ft 350 kts 75°
2026-04-14 23:19 -34.12882 25.19362 10044 ft 342 kts 75°
2026-04-14 23:20 -34.12405 25.22142 9915 ft 333 kts 75°
2026-04-14 23:20 -34.11945 25.24839 9847 ft 323 kts 75°
2026-04-14 23:20 -34.11504 25.27452 9776 ft 313 kts 75°
2026-04-14 23:20 -34.11080 25.29990 9685 ft 305 kts 75°
2026-04-14 23:21 -34.10666 25.32475 9476 ft 300 kts 75°
2026-04-14 23:21 -34.10256 25.34936 9191 ft 298 kts 75°
2026-04-14 23:21 -34.09882 25.37392 8877 ft 299 kts 82°
2026-04-14 23:21 -34.09845 25.39865 8608 ft 298 kts 87°
2026-04-14 23:22 -34.09863 25.42393 8338 ft 296 kts 88°
2026-04-14 23:22 -34.09882 25.44841 8053 ft 296 kts 87°
2026-04-14 23:22 -34.09906 25.47353 7792 ft 294 kts 87°
2026-04-14 23:22 -34.09931 25.49772 7528 ft 292 kts 87°
2026-04-14 23:23 -34.09960 25.52237 7173 ft 294 kts 88°
2026-04-14 23:23 -34.09989 25.54692 6941 ft 291 kts 87°
2026-04-14 23:23 -34.10020 25.57145 6458 ft 299 kts 87°
2026-04-14 23:23 -34.10054 25.59663 6177 ft 298 kts 87°
2026-04-14 23:24 -34.10089 25.62130 6050 ft 292 kts 88°
2026-04-14 23:24 -34.10121 25.64551 5952 ft 285 kts 88°
2026-04-14 23:24 -34.10149 25.66927 5964 ft 282 kts 87°
2026-04-14 23:24 -34.10174 25.69303 5968 ft 281 kts 87°
2026-04-14 23:25 -34.10200 25.71630 5930 ft 274 kts 88°
2026-04-14 23:25 -34.10226 25.73949 5559 ft 276 kts 88°
2026-04-14 23:25 -34.10241 25.76238 5375 ft 271 kts 84°
2026-04-14 23:25 -34.09774 25.78387 5047 ft 264 kts 56°
2026-04-14 23:26 -34.08548 25.79974 4758 ft 257 kts 29°
2026-04-14 23:26 -34.06899 25.80692 4340 ft 253 kts
2026-04-14 23:26 -34.05172 25.80473 4004 ft 248 kts 340°
2026-04-14 23:26 -34.03677 25.79528 3779 ft 238 kts 323°
2026-04-14 23:27 -34.02367 25.78360 3568 ft 231 kts 320°
2026-04-14 23:27 -34.01111 25.77202 3349 ft 226 kts 320°
2026-04-14 23:27 -33.99858 25.76060 3118 ft 226 kts 319°
2026-04-14 23:27 -33.98610 25.74937 2872 ft 228 kts 319°
2026-04-14 23:28 -33.97333 25.73792 2614 ft 229 kts 317°
2026-04-14 23:28 -33.96051 25.72644 2314 ft 230 kts 316°
2026-04-14 23:28 -33.95073 25.71228 1996 ft 213 kts 282°
2026-04-14 23:28 -33.95025 25.69583 1923 ft 187 kts 258°
2026-04-14 23:29 -33.95270 25.68137 1877 ft 165 kts 242°
2026-04-14 23:29 -33.95805 25.66991 1848 ft 163 kts 240°
2026-04-14 23:29 -33.96422 25.65743 1973 ft 173 kts 237°
2026-04-14 23:29 -33.97037 25.64540 1423 ft 175 kts 238°
2026-04-14 23:30 -33.97711 25.63255 564 ft 179 kts 240°
2026-04-14 23:30 -33.98315 25.62071 273 ft 152 kts 237°
2026-04-14 23:30 -33.98821 25.61095 227 ft 120 kts 238°
2026-04-14 23:30 -33.99092 25.60581 211 ft 100 kts 238°
2026-04-14 23:31 -33.99289 25.60177 210 ft 13 kts 271°
2026-04-14 23:31 -33.99222 25.60123 216 ft 8 kts 329°
2026-04-14 23:31 -33.99189 25.60102 214 ft 9 kts 340°
2026-04-14 23:31 -33.98996 25.60332 212 ft 85 kts 56°
2026-04-14 23:32 -33.98526 25.61225 223 ft 162 kts 56°